DELTA 1 DEB, 42659

Orbit data source: Space-Track

DELTA 1 DEB, 42659 is space debris in SSO originally from a launch on Thu, 12 Jun 1975 UTC launched from the Air Force Western Test Range (AFWTR). Debris objects in space refer to the collection of defunct objects orbiting the Earth. Examples of debris include non-operational satellites, rocket bodies, and fragments generated from explosions, collisions, or faulty payload assembly.

Loading next visibility...
DELTA 1 DEB details
Identifier
42659, 1975-052MU
Orbit
SSO
Last TLE update2 days ago
Origin
Flag of USGSFC (US)
ManufacturerUnknown
MissionSpacecraft
Bus & MotorUnknown
MassUnknown
Launch date (UTC)
1975-06-12 (49 years ago)
Launch vehicleUnknown
Launch site
Air Force Western Test Range (AFWTR)
Object type
Payload
Rocket body
Debris
Shape & HBRUnknown
Radar Cross SectionSmall (<0.1 m²)

Expand to show TLE details & history

TLE from 2 days ago
0 DELTA 1 DEB
1 42659U 75052MU  24337.50896128  .00017561  00000-0  18696-2 0  9995
2 42659  98.1823  70.7970 0001324  56.4852   1.5464 14.88989084593746
Epoch: 2024-12-02T12:12Z
Definitive object data (Epoch: 2024-12-02T12:12:54.254Z)
Latitude57.21147°
Longitude162.91272°
Altitude609.776 km
Speed7.56 km/s
True Right ascension03h 51m 52s
True Declination57° 03' 05"
Sunlit
Object was in full shadow at TLE epoch
Visualization TLE readout
Latitude6.44757°
Longitude176.74702°
Altitude602.631 km
Speed7.559 km/s
Apparent Right ascension01h 52m 54s
Apparent Declination-39° 43' 01"
Sunlit
Object is in full shadow
Visualization observer readout
Local Sidereal Time07:02:47
Azimuth231.505° WSW
Elevation-16.382°
Doppler factor1
Orbital elements
Apogee altitude599.058 km
Perigee altitude597.211 km
Semi-major axis6,976.272 km
Eccentricity0.0001324
Inclination98.1823°
RAAN70.797°
Arg. of periapsis56.4852°
True anomaly1.54681°
Mean anomaly1.5464°
Eccentric anomaly1.5466°
Mean motion3.72484 °/min
BSTAR0.0018696
Orbital period96.65 mins
Loading maneuver chart data...
Loading historical data...
Loading historical data...
Loading historical data...
Loading historical data...
Loading historical data...
Loading historical data...
Loading historical data...

DELTA 1 DEB Visibility forecast

Observer location: undefined°, undefined

Span
Click to sort rows by Start time (UTC) header in descending order
Start Az.
Max El. time (UTC)
Max El. Az.
Max El.
End time (UTC)
End Az.
7 mins2024-12-04 19:21:32.959Z12.616° NNE2024-12-04 19:24:32.959Z8.84° NNE44.169°2024-12-04 19:28:32.959Z194.581° SSW
6 mins2024-12-05 06:13:32.959Z146.925° SSE2024-12-05 06:15:32.959Z89.964° E41.313°2024-12-05 06:19:32.959Z354.802° N
|